{"data":{"norad_id":67135,"epoch":"2026-05-25T04:39:32.661792Z","epoch_age_seconds":55308,"freshness":"FRESH","line1":"1 67135U 25301C   26145.19412803  .00004272  00000+0  43878-3 0  9996","line2":"2 67135  51.8951  75.8322 0001059  54.0050 306.1015 14.92194281 25294","mean_motion":14.92194281,"eccentricity":0.0001059,"inclination_deg":51.8951,"raan_deg":75.8322,"arg_perigee_deg":54.005,"mean_anomaly_deg":306.1015,"bstar":0.00043878,"rev_number":2529,"period_min":96.502179262809,"perigee_km":590.35704080018,"apogee_km":591.83312415525,"semimajor_km":6969.2320824777,"source":"CELESTRAK","updated_at":"2026-05-25T13:38:06.748407Z"}}